Location: ??
(35.5052°N, 139.7262°E)
Time: 07:48:26
(UTC+00:00)

Envisat - Pass Details

Date: 28 September 2021
Orbit: 764 x 766 km, 98.2° (Epoch: 25 October)

Event Time Altitude Azimuth Distance (km) Brightness Sun altitude
Rises 18:50:20 0° 28° (NNE) 3,235 6.8 -21.8°
Reaches altitude 10° 18:53:08 10° 43° (NE) 2,304 6.3 -21.2°
Maximum altitude 18:57:04 23° 95° (E) 1,598 5.4 -20.5°
Drops below altitude 10° 19:01:00 10° 146° (SE) 2,292 5.7 -19.7°
Sets 19:03:45 0° 161° (SSE) 3,213 6.3 -19.1°
